{"data":{"norad_id":53889,"epoch":"2026-09-20T10:54:19.223424Z","epoch_age_seconds":87970,"freshness":"FRESH","line1":"1 53889U 22119D   26263.45438916  .00000617  00000+0  31644-4 0  9992","line2":"2 53889  53.1604 163.0878 0001257  85.4080 274.7065 15.31699798221179","mean_motion":15.31699798,"eccentricity":0.0001257,"inclination_deg":53.1604,"raan_deg":163.0878,"arg_perigee_deg":85.408,"mean_anomaly_deg":274.7065,"bstar":3.1644e-5,"rev_number":22117,"period_min":94.013200359513,"perigee_km":469.87969346321,"apogee_km":471.60150129119,"semimajor_km":6848.8775973772,"source":"CELESTRAK","updated_at":"2026-09-21T09:00:33.028177Z"}}